EW0754 Weather Reports


Display with metric or nautical units.
time (UTC)temp
F
wind
direction
speed
MPH
gust
MPH
rain 1hr
in
rain 24hr
in
rain mn
in
humidity
%
barometer
mb
20260505010904 63 217 4.0 6.0 0.00 0.00 0.00 55 1001.4
20260505010404 63 217 3.0 6.0 0.00 0.00 0.00 55 1001.4
20260505005904 64 213 5.0 8.0 0.00 0.00 0.00 54 1001.4
20260505005404 64 215 3.0 5.0 0.00 0.00 0.00 53 1001.3
20260505004903 65 209 2.0 7.0 0.00 0.00 0.00 50 1001.2
20260505002404 66 215 3.0 7.0 0.00 0.00 0.00 49 1001.2
20260505001903 67 216 2.0 5.0 0.00 0.00 0.00 49 1001.2
20260505001404 67 213 3.0 7.0 0.00 0.00 0.00 49 1001.2
20260505000904 67 221 3.0 5.0 0.00 0.00 0.00 49 1001.3
20260504235904 68 231 2.0 3.0 0.00 0.00 0.00 49 1001.4
20260504235403 68 235 3.0 5.0 0.00 0.00 0.00 48 1001.4
20260504234404 69 247 4.0 7.0 0.00 0.00 0.00 47 1001.4
20260504233904 69 250 3.0 6.0 0.00 0.01 0.00 47 1001.4
20260504233404 69 274 4.0 9.0 0.00 0.01 0.00 47 1001.4
20260504232903 69 263 5.0 8.0 0.00 0.01 0.00 47 1001.4
20260504232403 69 263 6.0 12.0 0.00 0.01 0.00 46 1001.5
20260504231903 69 277 5.0 8.0 0.00 0.01 0.00 46 1001.5
20260504231403 69 261 5.0 8.0 0.00 0.01 0.00 46 1001.5
20260504230904 69 264 4.0 12.0 0.00 0.01 0.00 46 1001.5
20260504230404 69 280 8.0 16.0 0.00 0.01 0.00 46 1001.5
20260504225904 69 255 7.0 13.0 0.00 0.01 0.00 45 1001.5
20260504225403 69 279 3.0 12.0 0.00 0.01 0.00 45 1001.5
20260504224904 70 260 4.0 10.0 0.00 0.02 0.00 44 1001.5
20260504224404 69 268 6.0 10.0 0.00 0.02 0.00 43 1001.6
20260504223903 70 290 7.0 15.0 0.00 0.02 0.00 44 1001.5
20260504223403 70 277 10.0 16.0 0.00 0.02 0.00 42 1001.6
20260504222904 70 277 7.0 13.0 0.00 0.02 0.00 42 1001.6
20260504222404 70 287 10.0 14.0 0.00 0.02 0.00 43 1001.5
20260504221904 70 285 7.0 13.0 0.00 0.02 0.00 44 1001.7
20260504221404 70 291 7.0 12.0 0.00 0.02 0.00 44 1001.6
20260504220903 70 284 12.0 17.0 0.00 0.02 0.00 42 1001.6
20260504220403 70 288 12.0 23.0 0.00 0.02 0.00 43 1001.6
20260504215903 71 292 12.0 17.0 0.00 0.02 0.00 40 1001.7
20260504215403 71 295 13.0 20.0 0.00 0.02 0.00 42 1001.6
20260504214904 71 292 10.0 20.0 0.00 0.02 0.00 42 1001.7
20260504214404 72 273 12.0 18.0 0.00 0.02 0.00 40 1001.6
20260504213903 72 276 9.0 14.0 0.00 0.02 0.00 41 1001.6
20260504213403 71 256 7.0 13.0 0.00 0.02 0.00 43 1001.5
20260504212903 71 269 13.0 21.0 0.00 0.02 0.00 43 1001.5
20260504211904 71 267 9.0 20.0 0.00 0.02 0.00 42 1001.7
20260504211403 71 259 10.0 16.0 0.00 0.02 0.00 44 1001.6
20260504210404 71 264 12.0 18.0 0.00 0.02 0.00 44 1001.7
20260504205904 71 255 10.0 17.0 0.00 0.02 0.00 44 1001.8
20260504205404 71 260 10.0 20.0 0.00 0.02 0.00 45 1001.8
20260504203903 71 278 9.0 22.0 0.00 0.02 0.00 44 1001.9
20260504202903 71 269 9.0 22.0 0.00 0.02 0.00 45 1002.0
20260504201403 71 255 10.0 18.0 0.00 0.02 0.00 44 1002.0
20260504200904 71 243 12.0 17.0 0.00 0.02 0.00 44 1002.1
20260504200404 71 252 7.0 14.0 0.00 0.02 0.00 46 1002.1
20260504195904 71 247 12.0 21.0 0.00 0.02 0.00 44 1002.3
20260504195403 71 260 6.0 16.0 0.00 0.02 0.00 49 1002.4
20260504194903 71 279 10.0 20.0 0.00 0.02 0.00 46 1002.4
20260504194403 71 264 11.0 21.0 0.00 0.02 0.00 49 1002.5
20260504193903 70 280 9.0 21.0 0.00 0.02 0.00 49 1002.6
20260504193403 70 256 12.0 20.0 0.00 0.02 0.00 48 1002.8
20260504192903 70 268 11.0 18.0 0.00 0.02 0.00 46 1002.8
20260504192404 70 240 10.0 16.0 0.00 0.02 0.00 48 1002.8
20260504191904 70 250 7.0 15.0 0.00 0.02 0.00 50 1003.0
20260504191403 70 273 10.0 23.0 0.00 0.02 0.00 50 1003.1
20260504190904 69 263 12.0 24.0 0.00 0.02 0.00 49 1003.1
20260504190404 69 277 12.0 28.0 0.00 0.02 0.00 50 1003.2
20260504185904 69 275 15.0 29.0 0.00 0.02 0.00 49 1003.3
20260504185404 69 293 8.0 20.0 0.00 0.02 0.00 53 1003.3
20260504184904 69 258 13.0 28.0 0.00 0.02 0.00 51 1003.4
20260504183904 69 252 11.0 20.0 0.00 0.02 0.00 51 1003.5
20260504183403 69 256 13.0 20.0 0.00 0.02 0.00 50 1003.7
20260504182904 69 262 12.0 25.0 0.00 0.02 0.00 50 1003.6
20260504182404 69 254 10.0 18.0 0.00 0.02 0.00 52 1003.7
20260504181403 68 256 9.0 16.0 0.00 0.02 0.00 55 1003.7
20260504180904 68 243 9.0 16.0 0.00 0.02 0.00 54 1003.8
20260504180403 68 243 9.0 16.0 0.00 0.02 0.00 55 1003.9
20260504175903 67 267 11.0 21.0 0.00 0.02 0.00 55 1004.0
20260504175403 67 265 10.0 18.0 0.00 0.02 0.00 56 1004.1
20260504174903 67 261 12.0 22.0 0.00 0.02 0.00 56 1004.2
20260504174403 66 262 13.0 22.0 0.00 0.02 0.00 56 1004.3
20260504173904 66 270 13.0 24.0 0.00 0.02 0.00 57 1004.2
20260504173403 66 291 12.0 23.0 0.00 0.02 0.00 57 1004.3
20260504172904 66 260 9.0 21.0 0.00 0.02 0.00 56 1004.3
20260504172404 65 274 12.0 17.0 0.00 0.02 0.00 56 1004.4
20260504171903 65 274 15.0 28.0 0.00 0.02 0.00 59 1004.4
20260504171405 65 260 11.0 20.0 0.00 0.02 0.00 58 1004.5
20260504170903 65 248 10.0 20.0 0.00 0.02 0.00 57 1004.5
20260504170403 64 255 13.0 20.0 0.00 0.02 0.00 56 1004.6
20260504160404 62 273 12.0 18.0 0.00 0.02 0.00 57 1004.9
20260504150903 61 250 12.0 22.0 0.00 0.02 0.00 58 1005.4
20260504150403 61 263 9.0 20.0 0.00 0.02 0.00 58 1005.4
20260504140904 60 262 14.0 21.0 0.00 0.02 0.00 57 1005.3
20260504140404 59 272 12.0 23.0 0.00 0.02 0.00 58 1005.2
20260504130404 57 259 10.0 20.0 0.00 0.02 0.00 58 1005.7
20260504110403 52 256 6.0 9.0 0.00 0.02 0.00 62 1006.0
20260504081904 48 251 3.0 6.0 0.00 0.02 0.00 68 1006.4
20260504080904 48 243 4.0 7.0 0.00 0.02 0.00 69 1006.5
20260504080404 48 231 3.0 6.0 0.00 0.02 0.00 69 1006.6
20260504070403 50 254 7.0 12.0 0.00 0.02 0.00 70 1007.2
20260504050404 51 263 8.0 13.0 0.00 0.02 0.00 63 1008.0
20260504045903 51 255 5.0 12.0 0.00 0.02 0.00 62 1008.0
20260504045403 52 265 6.0 13.0 0.00 0.02 0.00 61 1008.0
20260504044903 52 256 7.0 10.0 0.00 0.02 0.00 61 1008.1
20260504044403 52 260 7.0 12.0 0.00 0.02 0.00 60 1008.1
20260504043904 53 250 6.0 13.0 0.00 0.02 0.00 60 1008.2
20260504043404 53 269 6.0 9.0 0.00 0.02 0.00 59 1008.1
20260504042404 53 265 7.0 15.0 0.00 0.02 0.00 58 1008.2
20260504041903 53 272 5.0 13.0 0.00 0.02 0.00 58 1008.2
20260504041403 53 271 7.0 13.0 0.00 0.02 0.00 58 1008.2
20260504040903 54 275 9.0 17.0 0.00 0.02 0.00 58 1008.2
20260504040403 54 278 9.0 20.0 0.00 0.02 0.00 58 1008.2
20260504035904 54 266 9.0 17.0 0.00 0.02 0.02 57 1008.2
20260504035403 54 277 5.0 16.0 0.00 0.02 0.02 57 1008.1
20260504034904 54 266 6.0 12.0 0.00 0.02 0.02 57 1008.0
20260504034403 54 278 8.0 18.0 0.00 0.02 0.02 57 1008.1
20260504033403 55 279 12.0 21.0 0.00 0.02 0.02 56 1008.0
20260504032903 55 283 12.0 17.0 0.00 0.02 0.02 55 1008.1
20260504032403 55 276 12.0 20.0 0.00 0.02 0.02 55 1008.2
20260504031903 55 282 12.0 20.0 0.00 0.02 0.02 56 1008.1
20260504031403 55 278 9.0 20.0 0.00 0.02 0.02 56 1008.1
20260504030904 55 276 11.0 22.0 0.00 0.02 0.02 55 1008.1
20260504030404 55 278 10.0 25.0 0.00 0.02 0.02 55 1008.1
20260504025403 54 277 12.0 21.0 0.00 0.02 0.02 55 1008.0
20260504024403 54 275 11.0 22.0 0.00 0.02 0.02 56 1008.0
20260504023404 53 263 7.0 14.0 0.00 0.02 0.02 58 1008.0
20260504022904 53 280 9.0 21.0 0.00 0.02 0.02 58 1008.1
20260504021903 53 261 7.0 16.0 0.00 0.02 0.02 58 1008.1
20260504021404 53 272 9.0 15.0 0.00 0.02 0.02 58 1008.1
20260504020904 53 260 7.0 14.0 0.00 0.02 0.02 58 1008.1
20260504020404 53 266 9.0 14.0 0.00 0.02 0.02 57 1008.1
20260504015903 53 282 7.0 13.0 0.00 0.02 0.02 58 1008.2
20260504014404 54 269 9.0 15.0 0.00 0.02 0.02 56 1008.2
20260504013904 54 275 12.0 21.0 0.00 0.02 0.02 56 1008.2
20260504013404 54 274 8.0 14.0 0.00 0.02 0.02 57 1008.3
20260504012904 53 276 8.0 13.0 0.00 0.02 0.02 57 1008.3
20260504012404 53 271 7.0 12.0 0.00 0.02 0.02 58 1008.3
20260504011904 53 260 8.0 17.0 0.00 0.02 0.02 58 1008.4